CYGRCYGP

Guest
Details From CYGR - ILES DE LA MADELEINE
To CYGP - GASPE
Flight Number -
Tags generated
Created
Modified
Stats Distance 136 nm / 251 km
Max Altitude 3,900 ft / 1,189 m
Waypoints 4
Social Downloads 1
Likes 0
Share VATSIM

Download

Looking for another format? Having issues loading an existing format? Contact us
Advertisement - Login to hide

Notes

Basic altitude profile: - Ascent Rate: 1500ft/min - Ascent Speed: 200kts - Cruise Altitude: 16000ft - Cruise Speed: 220kts - Descent Rate: 1200ft/min - Descent Speed: 220kts

Route

CYGR YGR V382 YGP CYGP

ID Type Via Altitude Latitude Longitude Leg Dist Tot Dist Heading (true) Name
O CYGR APT - 0 ft / 0 m 47.42520˚ -61.77708˚ - 0 nm - ILES DE LA MADELEINE
YGR VOR - 100 ft / 30 m 47.43017˚ -61.77392˚ 0 nm 0 nm 23° / 23° GRINDSTONE VOR-DME
YGP VOR V382 (AWY-LO) 3,900 ft / 1,189 m 48.76317˚ -64.40481˚ 132 nm 132 nm 308° / 306° GASPE VOR-DME
O CYGP APT - 0 ft / 0 m 48.77528˚ -64.47861˚ 3 nm 135 nm 284° / 284° GASPE

Altitude Profile

Advertisement - Login to hide

CYGR

Details ICAO CYGR (YGR)
Name ILES DE LA MADELEINE
Region Canada
Timezone America/Halifax (UTC-3.0)
Stats Elevation 35 ft / 11 m (AMSL)
Location 47.425196° -61.777085°
Runways 2
Magnetic Variation 18.340° W

METAR

CYGR 242000Z 06003KT 030V100 20SM SCT009 BKN130 13/10 A2976 RMK SC4AC3 SLP078

Decode

TAF

TAF AMD TAF AMD CYGR 242007Z 2420/2502 VRB03KT P6SM SCT009 BKN130 TEMPO 2420/2422 5SM BR BKN009 FM242200 VRB03KT P6SM SCT004 OVC015 TEMPO 2422/2502 5SM BR BKN004 BECMG 2500/2502 01012G22KT RMK NXT FCST WILL BE ISSUED AT 251045Z

Decode

Departure Runways

ID Width Length Bearing (true) Bearing (mag) Surface Threshold Offset Overrun Length
07 150 ft / 46 m 4,485 ft / 1,367 m 52.53° 70.87° Asphalt 0 ft / 0 m 275 ft / 84 m
16 150 ft / 46 m 3,638 ft / 1,109 m 135.50° 153.84° Asphalt 0 ft / 0 m 0 ft / 0 m
25 150 ft / 46 m 4,485 ft / 1,367 m 232.55° 250.89° Asphalt 0 ft / 0 m 0 ft / 0 m
34 150 ft / 46 m 3,638 ft / 1,109 m 315.50° 333.84° Asphalt 0 ft / 0 m 0 ft / 0 m

CYGP

Details ICAO CYGP (YGP)
Name GASPE
Region Canada
Timezone America/Montreal (UTC-4.0)
Stats Elevation 108 ft / 33 m (AMSL)
Location 48.775278° -64.478611°
Runways 1
Magnetic Variation 18.493° W

METAR

CYGP 242000Z 10006KT 15SM FEW040 BKN140 14/06 A2985 RMK CU1AC7 CU TR SLP109 DENSITY ALT 200FT

Decode

TAF

TAF CYGP 241938Z 2420/2508 03007KT P6SM SCT020 BKN170 TEMPO 2420/2424 BKN020 FM250000 VRB03KT P6SM SCT010 BKN240 TEMPO 2500/2508 BKN010 RMK NXT FCST BY 250200Z

Decode

Destination Runways

ID Width Length Bearing (true) Bearing (mag) Surface Threshold Offset Overrun Length
11 150 ft / 46 m 4,488 ft / 1,368 m 83.95° 102.44° Asphalt 0 ft / 0 m 0 ft / 0 m
29 150 ft / 46 m 4,488 ft / 1,368 m 263.96° 282.45° Asphalt 0 ft / 0 m 0 ft / 0 m

Approach Navaids

Runway Type Ident Frequency Range Bearing (true) Bearing (mag) Slope Elevation
11 Localiser IGP 110.30 MHz 18 nm / 33 km 83.32° 101.81° - 108 ft / 33 m (AMSL)